Flag for India Weather past 2 weeks in Jodhpur, Rajasthan, India

Now
109 °F

Duststorm.


Feels Like: 101 °F
Forecast: 85 / 108 °F
Wind: 8 mph from Northwest

Location: Jaipur / Sanganer

Current Time: May 27, 2015 at 3:42:49 PM

Latest Report: May 27, 2015 at 3:00 PM


Visibility: 3 mi

Pressure: 29.68 "Hg

Humidity: 2%

Dew point: 9 °F

Location of JodhpurLocation

Historic Weather in Jodhpur — Graph

°F

Jodhpur temperature yesterday

Maximum temperature yesterday: 109 °F (at 2:00 PM)
Minimum temperature yesterday: 91 °F (at 5:00 AM)
Average temperature yesterday: 99 °F

Past Weeks' High & Low Weather Summary

 TemperatureHumidityPressure
High111 °F (May 18, 3:00 PM)58% (May 14, 6:00 AM)29.89 "Hg (May 14, 6:00 AM)
Low77 °F (May 15, 5:00 AM)3% (May 27, 1:00 PM)29.53 "Hg (May 23, 3:00 PM)
Average95 °F27%29.69 "Hg
* Reported May 12 1:00 PM — May 27 1:00 PM, Jodhpur, Weather by CustomWeather, © 2015

Note: Actual official high and low records may vary slightly from our data, if they occured in-between our weather recording intervals... More about our weather records

Advertising

Jodhpur weather history for previous 24 hours

 ConditionsComfort  
Time TempWeatherWind HumidityBarometerVisibility
1:00 PM
Wed, May 27
106 °FDuststorm.6 mph3%29.71 "Hg2 mi
12:00 PM104 °FHaze.7 mph6%29.74 "Hg2 mi
11:00 AM100 °FHaze.8 mph7%29.77 "Hg2 mi
10:00 AM99 °FHaze.6 mph7%29.77 "Hg2 mi
9:00 AM95 °FHaze.6 mph9%29.77 "Hg2 mi
8:00 AM91 °FHaze.5 mph13%29.74 "Hg2 mi
7:30 AM90 °FHaze.6 mph15%29.74 "Hg2 mi
7:00 AM86 °FHaze.2 mph20%29.74 "Hg2 mi
6:30 AM84 °FHaze.3 mph23%29.71 "Hg2 mi
6:00 AM82 °FHaze.3 mph20%29.71 "Hg2 mi
5:00 AM82 °FHaze.2 mph20%29.71 "Hg2 mi
4:00 AM86 °FHaze.3 mph17%29.68 "Hg2 mi
3:00 AM86 °FHaze.3 mph12%29.68 "Hg2 mi
2:00 AM93 °FHaze.3 mph7%29.68 "Hg2 mi
12:00 AM95 °FHaze.5 mph12%29.68 "Hg2 mi
11:00 PM
Tue, May 26
97 °FHaze.5 mph12%29.68 "Hg2 mi
10:00 PM97 °FHaze.6 mph14%29.68 "Hg2 mi
9:00 PM99 °FHaze.5 mph15%29.65 "Hg2 mi
8:00 PM100 °FHaze.7 mph16%29.65 "Hg2 mi
7:30 PM102 °FDuststorm.13 mph17%29.62 "Hg2 mi
7:00 PM102 °FDuststorm.14 mph17%29.62 "Hg2 mi
6:00 PM104 °FDuststorm.16 mph15%29.62 "Hg2 mi
5:00 PM106 °FDuststorm.15 mph13%29.59 "Hg2 mi
3:00 PM109 °FDuststorm.18 mph10%29.62 "Hg3 mi
Weather by CustomWeather, © 2015

See weather overviewHow to use our weather pages